Precipitable_Water
1.11 1.13 1.14 1.14 1.15 1.17 1.18 1.14 1.16 1.15 1.16 1.17 1.13 1.15 1.16 1.20 1.27 1.30 1.33 1.36 1.38 1.42 1.49 1.54 1.61 1.63 1.64 1.64 1.67 1.69 1.68 1.68 1.68 1.69 1.65 1.59 1.51 1.46 1.40 1.38 1.38 1.35
1.06 1.08 1.10 1.13 1.14 1.16 1.17 1.17 1.14 1.12 1.12 1.15 1.15 1.16 1.16 1.16 1.19 1.22 1.25 1.28 1.32 1.34 1.41 1.48 1.53 1.56 1.59 1.60 1.62 1.62 1.63 1.62 1.60 1.67 1.61 1.56 1.52 1.46 1.40 1.41 1.39 1.39
1.07 1.05 1.05 1.04 1.05 1.07 1.10 1.13 1.13 1.11 1.10 1.13 1.17 1.15 1.12 1.13 1.15 1.18 1.23 1.25 1.27 1.31 1.34 1.39 1.45 1.51 1.54 1.55 1.58 1.57 1.57 1.55 1.52 1.59 1.56 1.53 1.54 1.45 1.43 1.43 1.40 1.39
1.10 1.04 1.01 1.01 1.05 1.05 1.09 1.09 1.09 1.10 1.10 1.08 1.08 1.12 1.11 1.10 1.11 1.15 1.18 1.21 1.22 1.25 1.30 1.33 1.34 1.42 1.48 1.50 1.51 1.51 1.53 1.53 1.56 1.57 1.51 1.55 1.54 1.50 1.48 1.46 1.41 1.40
1.13 1.07 1.02 1.01 1.03 1.07 1.08 1.06 1.04 1.04 1.03 1.03 1.07 1.10 1.08 1.06 1.05 1.08 1.11 1.13 1.15 1.16 1.20 1.23 1.27 1.30 1.36 1.41 1.45 1.43 1.46 1.47 1.51 1.51 1.49 1.49 1.56 1.55 1.54 1.48 1.41 1.36
1.22 1.17 1.10 1.02 1.00 1.01 1.02 1.01 1.01 1.01 1.01 1.01 1.01 1.05 1.04 1.05 1.04 1.03 1.05 1.06 1.08 1.09 1.11 1.15 1.18 1.22 1.25 1.27 1.32 1.34 1.38 1.39 1.44 1.44 1.43 1.45 1.51 1.58 1.57 1.53 1.45 1.38
1.21 1.18 1.13 1.10 1.04 1.01 0.98 0.99 1.01 1.01 1.00 1.00 1.02 1.00 1.01 1.00 1.00 1.01 1.03 1.04 1.05 1.06 1.06 1.07 1.10 1.14 1.20 1.23 1.23 1.23 1.27 1.30 1.37 1.40 1.37 1.40 1.45 1.50 1.54 1.52 1.48 1.43
1.26 1.24 1.21 1.18 1.10 1.03 0.96 0.95 0.96 0.97 0.98 0.99 0.95 0.96 0.99 0.97 0.96 0.99 1.02 1.04 1.03 1.02 1.04 1.05 1.08 1.10 1.15 1.17 1.16 1.16 1.18 1.24 1.26 1.29 1.31 1.34 1.39 1.40 1.48 1.48 1.47 1.43
1.34 1.30 1.26 1.21 1.16 1.09 1.01 0.96 0.95 0.95 0.97 0.94 0.92 0.93 0.95 0.94 0.94 0.95 0.97 0.99 0.99 1.00 1.01 1.03 1.05 1.07 1.11 1.12 1.11 1.10 1.10 1.14 1.19 1.22 1.24 1.25 1.28 1.32 1.38 1.44 1.42 1.39
1.37 1.35 1.30 1.26 1.20 1.16 1.08 1.03 0.99 0.96 0.96 0.93 0.93 0.94 0.91 0.90 0.90 0.91 0.94 0.94 0.94 0.96 0.99 1.00 1.02 1.04 1.07 1.09 1.09 1.09 1.08 1.08 1.11 1.15 1.18 1.22 1.26 1.29 1.32 1.35 1.34 1.34
1.36 1.37 1.32 1.28 1.23 1.21 1.16 1.14 1.10 1.05 1.00 0.94 0.93 0.93 0.93 0.91 0.90 0.90 0.89 0.89 0.88 0.89 0.91 0.94 0.97 1.01 1.02 1.04 1.07 1.09 1.09 1.08 1.08 1.09 1.11 1.15 1.20 1.25 1.30 1.31 1.30 1.28
1.37 1.36 1.33 1.30 1.27 1.24 1.22 1.21 1.20 1.17 1.12 1.07 1.00 0.94 0.93 0.94 0.92 0.91 0.88 0.85 0.84 0.85 0.86 0.89 0.93 0.97 0.99 0.99 1.02 1.06 1.08 1.09 1.09 1.07 1.07 1.10 1.13 1.19 1.23 1.28 1.28 1.29
1.37 1.35 1.35 1.34 1.33 1.31 1.30 1.28 1.25 1.23 1.21 1.16 1.15 1.09 1.02 0.97 0.95 0.93 0.93 0.89 0.87 0.86 0.85 0.86 0.88 0.92 0.96 0.97 1.00 1.03 1.04 1.04 1.05 1.05 1.04 1.05 1.08 1.12 1.18 1.24 1.26 1.29
1.40 1.40 1.40 1.40 1.40 1.41 1.39 1.35 1.32 1.29 1.25 1.24 1.23 1.18 1.13 1.09 1.04 1.00 0.98 0.96 0.93 0.91 0.90 0.90 0.90 0.90 0.93 0.95 0.96 0.98 1.00 1.01 1.01 1.00 0.99 1.01 1.03 1.07 1.13 1.18 1.23 1.26
1.48 1.48 1.48 1.47 1.46 1.45 1.42 1.40 1.37 1.34 1.32 1.29 1.26 1.22 1.21 1.18 1.16 1.13 1.08 1.04 1.02 0.99 0.96 0.95 0.93 0.92 0.93 0.92 0.92 0.93 0.96 0.95 0.97 0.97 0.95 0.96 0.99 1.02 1.08 1.12 1.16 1.21
1.55 1.54 1.52 1.51 1.49 1.45 1.43 1.43 1.42 1.41 1.38 1.34 1.30 1.27 1.25 1.24 1.22 1.20 1.16 1.11 1.07 1.05 1.02 1.00 0.97 0.96 0.93 0.90 0.92 0.92 0.93 0.93 0.96 0.96 0.96 0.97 0.98 0.99 1.02 1.06 1.08 1.12
1.59 1.56 1.56 1.53 1.51 1.49 1.49 1.47 1.45 1.45 1.42 1.39 1.37 1.34 1.31 1.29 1.27 1.23 1.19 1.16 1.12 1.08 1.05 1.03 1.01 0.99 0.95 0.93 0.92 0.92 0.95 0.97 0.96 0.97 1.00 1.00 1.00 0.98 0.95 0.98 1.04 1.08
1.60 1.60 1.58 1.56 1.55 1.51 1.50 1.50 1.50 1.49 1.46 1.44 1.42 1.39 1.37 1.37 1.32 1.27 1.24 1.22 1.19 1.15 1.11 1.08 1.05 1.03 1.00 0.97 0.96 0.95 0.97 0.99 1.02 1.02 1.02 1.03 1.01 0.99 0.98 0.97 0.98 1.03
1.63 1.62 1.61 1.59 1.57 1.55 1.55 1.55 1.53 1.50 1.48 1.45 1.42 1.42 1.44 1.40 1.36 1.35 1.31 1.30 1.26 1.20 1.15 1.14 1.11 1.10 1.06 1.03 1.01 1.00 1.00 1.02 1.04 1.07 1.05 1.03 1.03 1.00 0.98 0.99 0.99 0.99
1.65 1.63 1.61 1.61 1.62 1.62 1.60 1.56 1.53 1.48 1.48 1.48 1.48 1.50 1.47 1.43 1.42 1.39 1.37 1.34 1.30 1.26 1.23 1.23 1.21 1.18 1.14 1.10 1.07 1.05 1.04 1.06 1.07 1.07 1.08 1.06 1.04 1.03 1.02 1.01 1.01 0.99
1.69 1.66 1.63 1.64 1.65 1.64 1.62 1.58 1.55 1.52 1.50 1.50 1.48 1.45 1.43 1.40 1.39 1.37 1.37 1.36 1.35 1.33 1.29 1.26 1.25 1.24 1.22 1.19 1.15 1.12 1.10 1.10 1.11 1.11 1.09 1.09 1.09 1.08 1.07 1.05 1.06 1.06
1.75 1.71 1.68 1.68 1.67 1.66 1.63 1.59 1.57 1.55 1.52 1.54 1.53 1.51 1.48 1.45 1.40 1.36 1.30 1.27 1.27 1.27 1.25 1.22 1.24 1.25 1.25 1.23 1.21 1.18 1.18 1.17 1.15 1.12 1.09 1.09 1.09 1.10 1.11 1.11 1.11 1.10
1.84 1.78 1.73 1.70 1.69 1.67 1.64 1.62 1.60 1.59 1.59 1.61 1.54 1.51 1.49 1.47 1.43 1.40 1.36 1.31 1.26 1.23 1.19 1.16 1.17 1.22 1.23 1.23 1.23 1.23 1.23 1.21 1.17 1.14 1.12 1.10 1.09 1.12 1.13 1.13 1.13 1.12
1.95 1.88 1.80 1.75 1.72 1.67 1.65 1.65 1.66 1.66 1.64 1.68 1.57 1.51 1.47 1.47 1.51 1.52 1.52 1.50 1.42 1.32 1.26 1.18 1.16 1.20 1.22 1.22 1.23 1.24 1.24 1.21 1.19 1.15 1.12 1.11 1.11 1.13 1.15 1.14 1.13 1.11
2.10 2.02 1.91 1.84 1.77 1.73 1.71 1.69 1.69 1.69 1.71 1.72 1.67 1.64 1.59 1.59 1.58 1.52 1.52 1.54 1.54 1.50 1.46 1.37 1.29 1.28 1.26 1.23 1.23 1.24 1.25 1.24 1.21 1.16 1.11 1.09 1.09 1.08 1.12 1.12 1.11 1.10
2.17 2.10 2.05 1.96 1.87 1.83 1.82 1.80 1.82 1.78 1.74 1.71 1.68 1.66 1.64 1.65 1.63 1.60 1.55 1.53 1.55 1.54 1.54 1.53 1.44 1.37 1.33 1.27 1.25 1.25 1.25 1.26 1.25 1.17 1.08 1.05 1.06 1.05 1.03 1.06 1.08 1.07
Wind_Speed
21 20 20 19 18 17 17 16 16 15 14 13 12 11 10 10 9 9 9 8 8 8 8 7 7 7 6 6 6 5 5 5 5 5 5 5 6 6 6 6 6 6
22 21 20 20 19 18 18 17 17 16 15 14 14 12 11 10 10 10 9 9 9 8 8 8 8 7 7 6 6 6 5 5 5 5 5 5 6 6 6 6 6 7
23 22 21 21 20 20 19 18 17 17 16 15 15 13 12 11 11 10 10 9 9 9 9 9 8 8 7 7 7 6 6 6 6 5 5 5 5 6 6 6 6 7
23 23 22 22 22 21 20 19 19 18 17 16 16 15 13 12 11 11 10 10 10 9 9 9 9 9 8 8 7 7 6 6 6 6 5 5 5 5 6 6 6 7
23 23 23 22 22 22 21 21 20 19 18 17 17 16 15 14 13 12 11 11 11 10 10 9 9 9 9 8 8 7 7 6 6 6 6 6 5 5 5 6 6 7
24 23 23 23 23 23 22 22 21 20 20 19 18 17 16 15 14 13 13 12 12 12 11 10 10 9 9 9 8 8 7 7 7 7 7 7 6 6 6 6 6 7
25 24 24 23 23 23 23 23 22 22 21 20 19 19 18 17 16 15 14 14 13 13 12 12 11 10 10 9 9 8 8 8 8 8 8 8 7 7 6 6 6 7
25 25 25 24 24 24 24 24 24 23 23 22 21 20 19 18 18 17 16 15 15 14 14 13 12 11 11 10 10 9 9 8 8 9 9 9 8 8 8 7 7 8
26 26 25 25 25 24 24 25 24 24 24 23 23 22 21 20 19 18 18 17 16 16 15 15 14 13 12 11 11 10 10 10 9 9 9 9 10 9 9 9 9 9
27 26 26 26 25 25 25 25 25 25 25 25 24 23 23 22 21 20 20 19 18 17 17 16 16 15 14 13 12 12 11 11 11 10 10 10 10 10 10 10 10 10
28 27 27 26 26 26 26 25 25 25 25 25 25 25 24 23 23 22 21 21 20 19 19 18 17 17 16 15 14 13 13 12 12 12 11 11 11 11 11 11 11 11
29 28 28 27 27 26 26 26 26 25 25 25 26 26 25 25 24 24 23 22 22 21 21 20 19 18 18 17 16 15 15 14 14 13 13 13 13 12 12 12 12 12
30 29 29 28 28 27 27 26 26 26 26 26 26 26 26 25 25 25 24 24 23 23 22 22 21 20 20 19 18 17 17 16 15 15 14 14 14 14 13 13 13 13
31 30 30 29 29 28 28 27 27 27 27 26 26 26 26 26 26 26 26 25 25 24 24 23 23 22 21 21 20 19 18 18 17 17 16 16 16 15 15 15 15 15
31 31 30 30 30 29 29 28 28 27 27 27 27 27 27 26 26 26 26 26 26 25 25 25 24 24 23 22 21 21 20 20 19 18 18 17 17 17 17 17 17 16
32 32 31 31 31 31 30 30 29 28 28 28 28 28 27 27 27 26 26 26 26 26 26 26 25 25 24 24 23 22 22 21 20 20 19 19 19 18 18 18 18 18
32 32 32 32 32 31 31 31 30 29 29 29 28 28 28 27 27 27 27 27 27 27 27 26 26 26 26 25 25 24 23 22 22 21 21 20 20 20 19 19 19 19
32 32 32 32 32 32 32 31 31 31 30 30 29 29 28 28 28 27 27 27 27 27 27 27 27 27 27 27 26 26 25 24 23 22 22 21 21 21 20 20 20 20
32 32 32 32 32 32 32 32 32 31 31 30 30 30 29 29 28 28 28 28 27 27 27 27 27 28 28 28 27 27 26 26 25 24 23 23 22 22 22 21 21 21
32 32 32 32 32 32 32 32 32 32 31 31 30 30 30 30 29 29 28 28 28 28 27 27 27 28 28 28 28 28 28 27 26 26 25 24 24 24 23 23 22 22
33 33 33 32 33 33 33 33 32 32 32 31 30 30 30 30 29 29 28 28 28 28 28 27 28 28 28 28 29 29 28 28 28 27 27 26 25 25 25 24 24 23
33 33 33 33 33 33 33 33 33 32 32 31 31 30 30 29 29 29 28 28 28 28 28 28 28 28 29 29 29 29 29 28 28 28 28 27 27 27 27 26 26 25
33 33 33 33 32 32 33 33 33 32 32 31 31 31 30 29 29 29 28 28 28 28 28 28 29 29 29 29 29 29 29 28 29 29 29 29 28 28 28 28 27 27
32 32 33 33 33 33 32 32 32 32 32 32 31 31 30 30 29 29 29 29 29 29 29 29 29 30 30 30 30 29 29 29 29 29 29 29 29 29 29 29 29 28
31 32 32 32 32 32 32 32 32 32 32 32 32 31 31 30 30 30 29 29 29 29 30 30 30 29 30 30 30 30 29 29 29 29 29 29 29 29 29 28 29 29
30 30 31 31 31 32 32 32 32 32 32 32 31 31 31 30 30 30 30 29 29 29 29 29 29 29 29 29 30 30 29 29 29 29 29 29 28 28 28 28 28 28
Wind_Direction
205 205 204 204 205 205 204 204 204 204 204 203 203 203 203 203 203 202 201 199 197 197 196 194 192 190 189 189 189 188 185 184 184 185 188 190 193 195 196 197 197 197
207 207 206 206 206 207 207 207 207 207 207 207 207 207 208 208 207 207 206 204 203 203 203 201 200 198 197 197 195 195 195 194 195 194 193 193 194 195 197 198 200 201
208 208 207 207 208 208 209 209 209 209 209 209 209 211 211 211 210 210 210 209 209 208 207 207 207 205 204 204 202 202 202 202 203 203 200 196 195 197 198 200 202 203
210 210 209 209 209 210 210 211 211 211 211 211 211 212 213 213 213 213 213 214 214 213 212 211 212 211 210 209 209 209 208 209 208 208 208 203 199 201 202 203 204 204
211 212 211 210 210 211 211 213 213 213 213 213 213 214 214 214 215 216 217 218 219 219 217 216 215 215 214 214 215 215 215 215 212 211 214 212 208 206 205 205 206 206
213 213 213 212 212 212 213 214 215 215 215 216 216 217 217 217 218 220 220 221 222 223 222 221 219 218 218 217 218 220 221 220 217 216 218 218 216 213 211 210 210 209
215 215 215 215 214 214 214 215 216 217 218 218 219 220 221 221 222 223 224 224 225 226 226 225 224 221 221 220 221 224 225 225 224 222 221 221 221 220 218 217 216 216
217 217 217 217 216 216 216 217 218 219 219 220 221 222 223 224 225 226 227 227 227 228 228 228 227 225 224 224 225 227 228 230 229 227 226 225 225 225 225 224 224 224
218 218 218 218 218 218 218 218 219 220 221 222 223 224 225 227 227 228 229 230 230 230 231 231 230 229 229 229 230 231 232 233 234 233 231 229 229 229 229 229 229 229
219 219 219 219 219 220 220 220 220 221 222 223 224 225 227 228 229 230 230 232 233 233 233 233 233 232 233 234 234 235 236 236 237 237 237 235 234 233 233 233 232 232
220 220 221 220 221 221 222 222 222 222 223 224 225 226 227 229 230 231 231 232 234 234 234 234 234 235 235 237 238 239 239 239 240 240 240 240 240 239 238 238 237 236
221 221 221 222 222 223 223 223 224 224 225 226 226 227 228 229 230 232 232 233 234 235 235 235 236 236 237 238 240 241 241 242 242 242 242 242 243 243 242 242 242 241
222 223 223 223 223 224 224 225 225 226 226 227 228 228 229 229 230 232 233 234 235 235 236 236 237 238 238 239 240 241 242 243 243 243 243 244 244 244 244 244 244 244
223 224 224 224 225 225 226 226 227 227 228 229 229 229 230 230 231 232 233 234 235 236 236 237 237 238 238 239 240 241 242 243 244 244 244 244 245 245 245 245 245 246
224 224 225 225 226 226 227 227 228 229 230 230 231 231 231 232 232 232 233 234 235 236 236 237 237 238 238 239 240 241 242 243 244 245 245 245 245 246 246 246 246 247
224 225 225 226 227 228 228 229 229 230 231 232 232 233 233 233 233 233 234 234 235 235 236 236 237 238 238 238 239 240 242 243 244 245 245 245 246 246 247 248 248 249
225 225 226 227 228 228 229 229 230 231 231 232 233 234 234 234 234 234 235 235 235 236 236 236 237 238 238 238 239 240 241 242 243 244 245 246 246 247 248 249 249 250
226 226 227 228 228 229 229 230 230 231 232 233 233 234 235 235 235 235 235 236 236 237 236 236 237 238 238 238 238 239 239 241 242 243 244 246 247 247 248 249 250 251
227 227 228 228 229 230 230 230 231 231 232 233 234 234 235 235 236 236 236 237 237 237 238 238 238 238 238 238 238 238 239 240 241 242 243 244 246 247 248 248 249 250
228 228 229 229 229 230 231 231 231 232 233 234 234 235 235 236 236 237 237 237 238 238 239 239 239 239 238 238 239 239 239 240 241 242 243 244 246 247 248 249 249 250
229 229 230 230 230 230 231 231 232 233 233 234 235 235 236 236 237 237 238 238 238 239 240 240 241 240 240 239 240 240 240 241 242 243 244 245 247 248 249 250 250 251
230 230 230 230 230 230 231 231 232 233 234 234 235 236 237 237 237 237 237 237 238 238 240 241 242 241 241 241 241 241 242 243 244 244 245 246 248 249 250 251 252 252
231 231 231 230 230 230 231 231 232 233 234 235 236 237 238 238 238 238 238 238 238 238 239 240 242 242 242 242 243 242 243 244 245 245 246 247 248 250 251 252 253 253
231 231 231 231 231 230 231 231 232 233 234 235 236 237 238 239 239 239 240 240 240 240 239 240 242 242 241 242 243 242 243 245 245 246 247 247 248 250 251 252 253 253
231 231 231 232 232 232 232 232 232 233 234 234 235 237 238 239 240 240 241 242 242 242 241 241 242 242 241 241 242 242 243 244 245 246 246 247 248 249 250 251 252 253
232 231 230 231 232 233 233 233 232 233 234 234 235 236 238 239 240 241 243 243 243 243 242 242 242 242 241 240 241 241 241 243 244 245 246 246 247 248 250 251 252 253